Location: Unspecified
(0.0000°N, 0.0000°E)
Time: 21:07:34
(UTC+00:00)

Transit 4A - Pass Details

Date: 31 May 2022
Orbit: 864 x 980 km, 66.8° (Epoch: 26 June)

Event Time Altitude Azimuth Distance (km) Brightness Sun altitude
Rises 02:29:17 0° 240° (WSW) 3,601 - -47.1°
Reaches altitude 10° 02:33:44 10° 270° (W) 2,679 - -46.1°
Maximum altitude 02:35:57 12° 291° (WNW) 2,545 - -45.7°
Drops below altitude 10° 02:38:12 10° 312° (NW) 2,697 - -45.2°
Sets 02:42:45 0° 342° (NNW) 3,656 - -44.2°
